START_TIME,STEP,MOV.,P11,t_acc.,P23,t_acc.,P27,t_acc.,A4,t_acc.
1981-08-27 12:00:23.900 ,5,0,1.,4.8,0.,4.8,0.,4.8,0.,4.8
1981-08-27 12:00:28.700 ,5,0,0.,4.8,0.,4.8,0.,4.8,0.,4.8
1981-08-27 12:00:33.500 ,5,0,0.,4.8,0.,4.8,0.,4.8,0.,4.8
1981-08-27 12:00:38.300 ,5,0,2.,4.8,0.,4.8,0.,4.8,0.,4.8
1981-08-27 12:00:43.100 ,5,0,1.,4.8,0.,4.8,0.,4.8,0.,4.8
1981-08-27 12:00:47.890 ,4,0,0.,4.8,0.,4.8,0.,4.8,0.,4.8
1981-08-27 12:00:52.690 ,4,0,0.,4.8,0.,4.8,0.,4.8,0.,4.8
1981-08-27 12:00:57.500 ,4,0,1.,4.8,0.,4.8,0.,4.8,0.,4.8
1981-08-27 12:01:02.300 ,4,0,0.,4.8,0.,4.8,0.,4.8,0.,4.8
1981-08-27 12:01:07.100 ,4,0,0.,4.8,0.,4.8,0.,4.8,0.,4.8
1981-08-27 12:01:11.890 ,4,0,1.,4.8,0.,4.8,1.,4.8,0.,4.8
1981-08-27 12:01:16.690 ,4,0,0.,4.8,0.,4.8,0.,4.8,0.,4.8
1981-08-27 12:01:21.500 ,4,0,0.,4.8,0.,4.8,0.,4.8,0.,4.8
1981-08-27 12:01:26.300 ,4,0,0.,4.8,0.,4.8,0.,4.8,0.,4.8
1981-08-27 12:01:31.100 ,4,0,0.,4.8,0.,4.8,0.,4.8,0.,4.8
1981-08-27 12:01:35.890 ,3,0,1.,4.8,0.,4.8,1.,4.8,0.,4.8
1981-08-27 12:01:40.690 ,3,0,0.,4.8,0.,4.8,0.,4.8,0.,4.8
1981-08-27 12:01:45.500 ,3,0,0.,4.8,0.,4.8,0.,4.8,0.,4.8
1981-08-27 12:01:50.300 ,3,0,0.,4.8,0.,4.8,0.,4.8,0.,4.8
1981-08-27 12:01:55.100 ,3,0,0.,4.8,0.,4.8,0.,4.8,0.,4.8
1981-08-27 12:01:59.890 ,3,0,0.,4.8,0.,4.8,1.,4.8,0.,4.8
1981-08-27 12:02:04.690 ,3,0,0.,4.8,0.,4.8,0.,4.8,0.,4.8
1981-08-27 12:02:09.500 ,3,0,1.,4.8,0.,4.8,0.,4.8,0.,4.8
1981-08-27 12:02:14.300 ,3,0,0.,4.8,0.,4.8,0.,4.8,0.,4.8
1981-08-27 12:02:19.100 ,3,0,0.,4.8,0.,4.8,0.,4.8,0.,4.8
1981-08-27 12:02:23.900 ,2,0,1.,4.8,0.,4.8,0.,4.8,0.,4.8
1981-08-27 12:02:28.700 ,2,0,2.,4.8,0.,4.8,0.,4.8,0.,4.8
1981-08-27 12:02:33.490 ,2,0,0.,4.8,0.,4.8,0.,4.8,0.,4.8
1981-08-27 12:02:38.300 ,2,0,0.,4.8,0.,4.8,0.,4.8,0.,4.8
1981-08-27 12:02:43.100 ,2,0,0.,4.8,0.,4.8,0.,4.8,0.,4.8
1981-08-27 12:02:47.890 ,2,0,0.,4.8,0.,4.8,0.,4.8,0.,4.8
1981-08-27 12:02:52.700 ,2,0,0.,4.8,0.,4.8,0.,4.8,0.,4.8
1981-08-27 12:02:57.490 ,2,0,0.,4.8,0.,4.8,0.,4.8,0.,4.8
1981-08-27 12:03:02.300 ,2,0,0.,4.8,0.,4.8,0.,4.8,0.,4.8
1981-08-27 12:03:07.100 ,2,0,0.,4.8,0.,4.8,0.,4.8,0.,4.8
1981-08-27 12:03:11.900 ,1,0,0.,4.8,0.,4.8,0.,4.8,0.,4.8
1981-08-27 12:03:16.700 ,1,0,0.,4.8,0.,4.8,0.,4.8,0.,4.8
1981-08-27 12:03:21.500 ,1,0,1.,4.8,0.,4.8,1.,4.8,0.,4.8
1981-08-27 12:03:26.300 ,1,0,0.,4.8,0.,4.8,0.,4.8,0.,4.8
1981-08-27 12:03:31.100 ,1,0,0.,4.8,0.,4.8,0.,4.8,0.,4.8
1981-08-27 12:03:35.890 ,1,0,0.,4.8,0.,4.8,0.,4.8,0.,4.8
1981-08-27 12:03:40.700 ,1,0,1.,4.8,0.,4.8,0.,4.8,0.,4.8
1981-08-27 12:03:45.500 ,1,0,1.,4.8,0.,4.8,0.,4.8,0.,4.8
1981-08-27 12:03:50.300 ,1,0,1.,4.8,0.,4.8,0.,4.8,0.,4.8
1981-08-27 12:03:55.100 ,1,0,0.,4.8,0.,4.8,0.,4.8,0.,4.8
1981-08-27 12:03:59.900 ,0,0,0.,4.8,0.,4.8,1.,4.8,0.,4.8
1981-08-27 12:04:04.700 ,0,0,0.,4.8,0.,4.8,0.,4.8,0.,4.8
1981-08-27 12:04:09.500 ,0,0,0.,4.8,0.,4.8,0.,4.8,0.,4.8
1981-08-27 12:04:14.300 ,0,0,0.,4.8,0.,4.8,0.,4.8,0.,4.8
1981-08-27 12:04:19.100 ,0,0,0.,4.8,0.,4.8,0.,4.8,0.,4.8
1981-08-27 12:04:23.900 ,0,0,2.,4.8,0.,4.8,0.,4.8,0.,4.8
1981-08-27 12:04:28.700 ,0,0,0.,4.8,1.,4.8,0.,4.8,0.,4.8
1981-08-27 12:04:33.500 ,0,0,0.,4.8,0.,4.8,0.,4.8,0.,4.8
1981-08-27 12:04:38.300 ,0,0,0.,4.8,0.,4.8,0.,4.8,0.,4.8
1981-08-27 12:04:43.100 ,0,0,0.,4.8,0.,4.8,0.,4.8,0.,4.8
1981-08-27 12:04:47.900 ,0,0,0.,4.8,0.,4.8,0.,4.8,0.,4.8
1981-08-27 12:04:52.700 ,0,0,0.,4.8,0.,4.8,0.,4.8,0.,4.8
1981-08-27 12:04:57.500 ,0,0,1.,4.8,1.,4.8,0.,4.8,0.,4.8
1981-08-27 12:05:02.300 ,0,0,1.,4.8,0.,4.8,0.,4.8,0.,4.8
1981-08-27 12:05:07.100 ,0,0,0.,4.8,0.,4.8,0.,4.8,0.,4.8
1981-08-27 12:05:11.900 ,0,0,1.,4.8,0.,4.8,0.,4.8,0.,4.8
1981-08-27 12:05:16.700 ,0,0,1.,4.8,0.,4.8,0.,4.8,0.,4.8
1981-08-27 12:05:21.500 ,0,0,1.,4.8,0.,4.8,0.,4.8,0.,4.8
1981-08-27 12:05:26.300 ,0,0,0.,4.8,0.,4.8,0.,4.8,0.,4.8
1981-08-27 12:05:31.100 ,0,0,0.,4.8,0.,4.8,0.,4.8,0.,4.8
1981-08-27 12:05:35.900 ,1,0,0.,4.8,0.,4.8,0.,4.8,0.,4.8
1981-08-27 12:05:40.700 ,1,0,0.,4.8,0.,4.8,0.,4.8,0.,4.8
1981-08-27 12:05:45.500 ,1,0,0.,4.8,0.,4.8,0.,4.8,0.,4.8
1981-08-27 12:05:50.300 ,1,0,1.,4.8,0.,4.8,0.,4.8,0.,4.8
1981-08-27 12:05:55.100 ,1,0,0.,4.8,1.,4.8,0.,4.8,0.,4.8
1981-08-27 12:05:59.900 ,1,0,0.,4.8,0.,4.8,0.,4.8,0.,4.8
1981-08-27 12:06:04.700 ,1,0,1.,4.8,1.,4.8,0.,4.8,0.,4.8
1981-08-27 12:06:09.500 ,1,0,2.,4.8,0.,4.8,1.,4.8,0.,4.8
1981-08-27 12:06:14.300 ,1,0,0.,4.8,0.,4.8,0.,4.8,0.,4.8
1981-08-27 12:06:19.100 ,1,0,1.,4.8,0.,4.8,0.,4.8,0.,4.8
1981-08-27 12:06:23.890 ,2,0,0.,4.8,0.,4.8,0.,4.8,0.,4.8
1981-08-27 12:06:28.690 ,2,0,0.,4.8,0.,4.8,1.,4.8,0.,4.8
1981-08-27 12:06:33.490 ,2,0,0.,4.8,0.,4.8,0.,4.8,0.,4.8
1981-08-27 12:06:38.290 ,2,0,0.,4.8,0.,4.8,1.,4.8,0.,4.8
1981-08-27 12:06:43.090 ,2,0,1.,4.8,0.,4.8,0.,4.8,0.,4.8
1981-08-27 12:06:47.890 ,2,0,0.,4.8,0.,4.8,1.,4.8,0.,4.8
1981-08-27 12:06:52.690 ,2,0,0.,4.8,0.,4.8,0.,4.8,0.,4.8
1981-08-27 12:06:57.490 ,2,0,0.,4.8,0.,4.8,0.,4.8,0.,4.8
1981-08-27 12:07:02.290 ,2,0,0.,4.8,0.,4.8,0.,4.8,0.,4.8
1981-08-27 12:07:07.090 ,2,0,0.,4.8,0.,4.8,0.,4.8,0.,4.8
1981-08-27 12:07:11.890 ,3,0,0.,4.8,0.,4.8,0.,4.8,0.,4.8
1981-08-27 12:07:16.690 ,3,0,0.,4.8,0.,4.8,0.,4.8,0.,4.8
1981-08-27 12:07:21.490 ,3,0,0.,4.8,0.,4.8,0.,4.8,0.,4.8
1981-08-27 12:07:26.290 ,3,0,0.,4.8,0.,4.8,0.,4.8,0.,4.8
1981-08-27 12:07:31.090 ,3,0,0.,4.8,0.,4.8,0.,4.8,0.,4.8
1981-08-27 12:07:35.890 ,3,0,0.,4.8,0.,4.8,0.,4.8,0.,4.8
1981-08-27 12:07:40.690 ,3,0,0.,4.8,0.,4.8,0.,4.8,0.,4.8
1981-08-27 12:07:45.490 ,3,0,1.,4.8,0.,4.8,0.,4.8,0.,4.8
1981-08-27 12:07:50.290 ,3,0,1.,4.8,0.,4.8,0.,4.8,0.,4.8
1981-08-27 12:07:55.090 ,3,0,0.,4.8,0.,4.8,0.,4.8,0.,4.8
1981-08-27 12:07:59.890 ,4,0,0.,4.8,0.,4.8,0.,4.8,0.,4.8
1981-08-27 12:08:04.690 ,4,0,0.,4.8,0.,4.8,0.,4.8,0.,4.8
1981-08-27 12:08:09.490 ,4,0,0.,4.8,0.,4.8,0.,4.8,0.,4.8
1981-08-27 12:08:14.290 ,4,0,0.,4.8,0.,4.8,0.,4.8,0.,4.8
1981-08-27 12:08:19.090 ,4,0,0.,4.8,0.,4.8,0.,4.8,0.,4.8
1981-08-27 12:08:23.890 ,4,0,0.,4.8,0.,4.8,0.,4.8,0.,4.8
1981-08-27 12:08:28.690 ,4,0,0.,4.8,0.,4.8,0.,4.8,0.,4.8
1981-08-27 12:08:33.490 ,4,0,0.,4.8,0.,4.8,0.,4.8,0.,4.8
1981-08-27 12:08:38.290 ,4,0,0.,4.8,0.,4.8,0.,4.8,0.,4.8
1981-08-27 12:08:43.090 ,4,0,0.,4.8,0.,4.8,0.,4.8,0.,4.8
1981-08-27 12:08:47.890 ,5,0,0.,4.8,0.,4.8,1.,4.8,0.,4.8
1981-08-27 12:08:52.690 ,5,0,2.,4.8,0.,4.8,0.,4.8,0.,4.8
1981-08-27 12:08:57.490 ,5,0,1.,4.8,0.,4.8,0.,4.8,0.,4.8
1981-08-27 12:09:02.290 ,5,0,0.,4.8,0.,4.8,0.,4.8,0.,4.8
1981-08-27 12:09:07.090 ,5,0,0.,4.8,0.,4.8,0.,4.8,0.,4.8
1981-08-27 12:09:11.890 ,5,0,0.,4.8,0.,4.8,0.,4.8,0.,4.8
1981-08-27 12:09:16.690 ,5,0,0.,4.8,0.,4.8,1.,4.8,0.,4.8
1981-08-27 12:09:21.490 ,5,0,0.,4.8,0.,4.8,0.,4.8,0.,4.8
1981-08-27 12:09:26.290 ,5,0,0.,4.8,0.,4.8,0.,4.8,0.,4.8
1981-08-27 12:09:31.090 ,5,0,0.,4.8,0.,4.8,0.,4.8,0.,4.8
1981-08-27 12:09:35.890 ,6,0,0.,4.8,0.,4.8,1.,4.8,0.,4.8
1981-08-27 12:09:40.690 ,6,0,0.,4.8,0.,4.8,0.,4.8,0.,4.8
1981-08-27 12:09:45.490 ,6,0,0.,4.8,0.,4.8,0.,4.8,0.,4.8
1981-08-27 12:09:50.290 ,6,0,1.,4.8,0.,4.8,0.,4.8,0.,4.8
1981-08-27 12:09:55.090 ,6,0,0.,4.8,0.,4.8,0.,4.8,0.,4.8
1981-08-27 12:09:59.890 ,6,0,0.,4.8,0.,4.8,0.,4.8,0.,4.8
1981-08-27 12:10:04.690 ,6,0,0.,4.8,0.,4.8,0.,4.8,0.,4.8
1981-08-27 12:10:09.490 ,6,0,1.,4.8,0.,4.8,0.,4.8,0.,4.8
1981-08-27 12:10:14.290 ,6,0,1.,4.8,0.,4.8,0.,4.8,0.,4.8
1981-08-27 12:10:19.090 ,6,0,0.,4.8,0.,4.8,0.,4.8,0.,4.8
1981-08-27 12:11:11.890 ,0,0,1.,4.8,0.,4.8,0.,4.8,0.,4.8
1981-08-27 12:11:16.690 ,0,0,0.,4.8,0.,4.8,0.,4.8,0.,4.8
1981-08-27 12:11:21.490 ,0,0,1.,4.8,0.,4.8,0.,4.8,0.,4.8
1981-08-27 12:11:26.290 ,0,0,0.,4.8,0.,4.8,0.,4.8,0.,4.8
1981-08-27 12:11:31.090 ,0,0,0.,4.8,0.,4.8,0.,4.8,0.,4.8
1981-08-27 12:11:35.890 ,6,0,0.,4.8,0.,4.8,1.,4.8,0.,4.8
1981-08-27 12:11:40.690 ,6,0,0.,4.8,0.,4.8,0.,4.8,0.,4.8
1981-08-27 12:11:45.490 ,6,0,2.,4.8,0.,4.8,0.,4.8,0.,4.8
1981-08-27 12:11:50.290 ,6,0,1.,4.8,0.,4.8,0.,4.8,0.,4.8
1981-08-27 12:11:55.090 ,6,0,0.,4.8,0.,4.8,0.,4.8,0.,4.8
1981-08-27 12:11:59.890 ,5,0,0.,4.8,0.,4.8,0.,4.8,0.,4.8
1981-08-27 12:12:04.690 ,5,0,0.,4.8,0.,4.8,0.,4.8,0.,4.8
1981-08-27 12:12:09.490 ,5,0,0.,4.8,0.,4.8,0.,4.8,0.,4.8
1981-08-27 12:12:14.290 ,5,0,1.,4.8,0.,4.8,0.,4.8,0.,4.8
1981-08-27 12:12:19.090 ,5,0,1.,4.8,0.,4.8,0.,4.8,0.,4.8
1981-08-27 12:12:23.890 ,4,0,1.,4.8,0.,4.8,0.,4.8,0.,4.8
1981-08-27 12:12:28.690 ,4,0,1.,4.8,0.,4.8,0.,4.8,0.,4.8
1981-08-27 12:12:33.490 ,4,0,0.,4.8,0.,4.8,0.,4.8,0.,4.8
1981-08-27 12:12:38.290 ,4,0,1.,4.8,0.,4.8,0.,4.8,0.,4.8
1981-08-27 12:12:43.090 ,4,0,1.,4.8,0.,4.8,0.,4.8,0.,4.8
1981-08-27 12:12:47.890 ,3,0,0.,4.8,0.,4.8,0.,4.8,0.,4.8
1981-08-27 12:12:52.690 ,3,0,0.,4.8,0.,4.8,0.,4.8,0.,4.8
1981-08-27 12:12:57.490 ,3,0,1.,4.8,0.,4.8,0.,4.8,0.,4.8
1981-08-27 12:13:02.290 ,3,0,0.,4.8,0.,4.8,0.,4.8,0.,4.8
1981-08-27 12:13:07.090 ,3,0,0.,4.8,0.,4.8,0.,4.8,0.,4.8
1981-08-27 12:13:11.890 ,2,0,1.,4.8,0.,4.8,0.,4.8,0.,4.8
1981-08-27 12:13:16.690 ,2,0,1.,4.8,0.,4.8,0.,4.8,0.,4.8
1981-08-27 12:13:21.490 ,2,0,0.,4.8,0.,4.8,0.,4.8,0.,4.8
1981-08-27 12:13:26.290 ,2,0,0.,4.8,0.,4.8,0.,4.8,0.,4.8
1981-08-27 12:13:31.090 ,2,0,0.,4.8,0.,4.8,0.,4.8,0.,4.8
1981-08-27 12:13:35.890 ,1,0,0.,4.8,0.,4.8,0.,4.8,0.,4.8
1981-08-27 12:13:40.690 ,1,0,0.,4.8,0.,4.8,0.,4.8,0.,4.8
1981-08-27 12:13:45.490 ,1,0,0.,4.8,0.,4.8,0.,4.8,0.,4.8
1981-08-27 12:13:50.290 ,1,0,0.,4.8,0.,4.8,0.,4.8,0.,4.8
1981-08-27 12:13:55.090 ,1,0,1.,4.8,0.,4.8,0.,4.8,0.,4.8
1981-08-27 12:13:59.890 ,0,0,0.,4.8,0.,4.8,1.,4.8,0.,4.8
1981-08-27 12:14:04.690 ,0,0,0.,4.8,0.,4.8,0.,4.8,0.,4.8
1981-08-27 12:14:09.490 ,0,0,0.,4.8,0.,4.8,0.,4.8,0.,4.8
1981-08-27 12:14:14.290 ,0,0,0.,4.8,0.,4.8,0.,4.8,0.,4.8
1981-08-27 12:14:19.090 ,0,0,0.,4.8,0.,4.8,0.,4.8,0.,4.8
1981-08-27 12:14:23.890 ,0,0,0.,4.8,0.,4.8,0.,4.8,0.,4.8
1981-08-27 12:14:28.690 ,0,0,0.,4.8,0.,4.8,0.,4.8,0.,4.8
1981-08-27 12:14:33.490 ,0,0,0.,4.8,0.,4.8,0.,4.8,0.,4.8
1981-08-27 12:14:38.290 ,0,0,0.,4.8,0.,4.8,0.,4.8,0.,4.8
1981-08-27 12:14:43.090 ,0,0,1.,4.8,0.,4.8,0.,4.8,0.,4.8
1981-08-27 12:14:47.890 ,1,0,0.,4.8,0.,4.8,0.,4.8,0.,4.8
1981-08-27 12:14:52.690 ,1,0,0.,4.8,0.,4.8,0.,4.8,0.,4.8
1981-08-27 12:14:57.490 ,1,0,0.,4.8,0.,4.8,0.,4.8,0.,4.8
1981-08-27 12:15:02.290 ,1,0,2.,4.8,0.,4.8,0.,4.8,0.,4.8
1981-08-27 12:15:07.090 ,1,0,0.,4.8,0.,4.8,2.,4.8,0.,4.8
1981-08-27 12:15:11.890 ,2,0,0.,4.8,0.,4.8,0.,4.8,0.,4.8
1981-08-27 12:15:16.690 ,2,0,0.,4.8,0.,4.8,0.,4.8,0.,4.8
1981-08-27 12:15:21.490 ,2,0,0.,4.8,0.,4.8,0.,4.8,0.,4.8
1981-08-27 12:15:26.290 ,2,0,0.,4.8,0.,4.8,0.,4.8,0.,4.8
1981-08-27 12:15:31.090 ,2,0,0.,4.8,0.,4.8,0.,4.8,0.,4.8
1981-08-27 12:15:35.890 ,3,0,0.,4.8,0.,4.8,0.,4.8,0.,4.8
1981-08-27 12:15:40.690 ,3,0,0.,4.8,0.,4.8,1.,4.8,0.,4.8
1981-08-27 12:15:45.490 ,3,0,0.,4.8,0.,4.8,0.,4.8,0.,4.8
1981-08-27 12:15:50.290 ,3,0,0.,4.8,0.,4.8,0.,4.8,0.,4.8
1981-08-27 12:15:55.090 ,3,0,0.,4.8,0.,4.8,0.,4.8,0.,4.8
1981-08-27 12:15:59.890 ,4,0,1.,4.8,0.,4.8,1.,4.8,0.,4.8
1981-08-27 12:16:04.690 ,4,0,1.,4.8,0.,4.8,0.,4.8,0.,4.8
1981-08-27 12:16:09.490 ,4,0,0.,4.8,0.,4.8,0.,4.8,0.,4.8
1981-08-27 12:16:14.290 ,4,0,0.,4.8,0.,4.8,0.,4.8,0.,4.8
1981-08-27 12:16:19.090 ,4,0,0.,4.8,0.,4.8,0.,4.8,0.,4.8
1981-08-27 12:16:23.890 ,5,0,0.,4.8,0.,4.8,0.,4.8,0.,4.8
1981-08-27 12:16:28.690 ,5,0,0.,4.8,1.,4.8,0.,4.8,0.,4.8
1981-08-27 12:16:33.490 ,5,0,1.,4.8,0.,4.8,0.,4.8,0.,4.8
1981-08-27 12:16:38.290 ,5,0,0.,4.8,0.,4.8,0.,4.8,0.,4.8
1981-08-27 12:16:43.090 ,5,0,0.,4.8,0.,4.8,0.,4.8,0.,4.8
1981-08-27 12:16:47.890 ,6,0,0.,4.8,0.,4.8,0.,4.8,0.,4.8
1981-08-27 12:16:52.690 ,6,0,1.,4.8,0.,4.8,0.,4.8,0.,4.8
1981-08-27 12:16:57.490 ,6,0,0.,4.8,0.,4.8,0.,4.8,0.,4.8
1981-08-27 12:17:02.290 ,6,0,0.,4.8,0.,4.8,0.,4.8,0.,4.8
1981-08-27 12:17:07.090 ,6,0,2.,4.8,0.,4.8,0.,4.8,0.,4.8
1981-08-27 12:17:11.890 ,7,0,1.,4.8,0.,4.8,0.,4.8,0.,4.8
1981-08-27 12:17:16.690 ,7,0,0.,4.8,0.,4.8,0.,4.8,0.,4.8
1981-08-27 12:17:21.490 ,7,0,0.,4.8,0.,4.8,1.,4.8,0.,4.8
1981-08-27 12:17:26.290 ,7,0,1.,4.8,0.,4.8,0.,4.8,0.,4.8
1981-08-27 12:17:31.090 ,7,0,0.,4.8,0.,4.8,0.,4.8,0.,4.8
1981-08-27 12:17:35.890 ,7,0,0.,4.8,0.,4.8,0.,4.8,0.,4.8
1981-08-27 12:17:40.690 ,7,0,0.,4.8,0.,4.8,0.,4.8,0.,4.8
1981-08-27 12:17:45.490 ,7,0,0.,4.8,0.,4.8,0.,4.8,0.,4.8
1981-08-27 12:17:50.290 ,7,0,1.,4.8,0.,4.8,0.,4.8,0.,4.8
1981-08-27 12:17:55.090 ,7,0,1.,4.8,0.,4.8,0.,4.8,0.,4.8
1981-08-27 12:17:59.890 ,7,0,0.,4.8,0.,4.8,0.,4.8,0.,4.8
1981-08-27 12:18:04.690 ,7,0,0.,4.8,1.,4.8,0.,4.8,0.,4.8
1981-08-27 12:18:09.490 ,7,0,0.,4.8,0.,4.8,0.,4.8,0.,4.8
1981-08-27 12:18:14.290 ,7,0,0.,4.8,0.,4.8,0.,4.8,0.,4.8
1981-08-27 12:18:19.090 ,7,0,1.,4.8,0.,4.8,0.,4.8,0.,4.8
1981-08-27 12:18:23.890 ,6,0,0.,4.8,0.,4.8,0.,4.8,0.,4.8
1981-08-27 12:18:28.690 ,6,0,0.,4.8,0.,4.8,0.,4.8,0.,4.8
1981-08-27 12:18:33.490 ,6,0,0.,4.8,0.,4.8,0.,4.8,0.,4.8
1981-08-27 12:18:38.290 ,6,0,0.,4.8,0.,4.8,0.,4.8,0.,4.8
1981-08-27 12:18:43.090 ,6,0,0.,4.8,0.,4.8,0.,4.8,0.,4.8
1981-08-27 12:18:47.890 ,6,0,0.,4.8,0.,4.8,0.,4.8,0.,4.8
1981-08-27 12:18:52.690 ,6,0,1.,4.8,0.,4.8,0.,4.8,0.,4.8
1981-08-27 12:18:57.490 ,6,0,0.,4.8,0.,4.8,0.,4.8,0.,4.8
1981-08-27 12:19:02.290 ,6,0,0.,4.8,0.,4.8,1.,4.8,0.,4.8
1981-08-27 12:19:07.090 ,6,0,0.,4.8,0.,4.8,0.,4.8,0.,4.8
1981-08-27 12:19:11.890 ,5,0,0.,4.8,0.,4.8,0.,4.8,0.,4.8
1981-08-27 12:19:16.690 ,5,0,0.,4.8,0.,4.8,0.,4.8,0.,4.8
1981-08-27 12:19:21.490 ,5,0,0.,4.8,0.,4.8,0.,4.8,0.,4.8
1981-08-27 12:19:26.290 ,5,0,0.,4.8,0.,4.8,0.,4.8,0.,4.8
1981-08-27 12:19:31.090 ,5,0,0.,4.8,0.,4.8,0.,4.8,0.,4.8
1981-08-27 12:19:35.890 ,5,0,2.,4.8,0.,4.8,0.,4.8,0.,4.8
1981-08-27 12:19:40.690 ,5,0,0.,4.8,0.,4.8,0.,4.8,0.,4.8
1981-08-27 12:19:45.490 ,5,0,0.,4.8,0.,4.8,0.,4.8,0.,4.8
1981-08-27 12:19:50.290 ,5,0,1.,4.8,0.,4.8,0.,4.8,0.,4.8
1981-08-27 12:19:55.090 ,5,0,0.,4.8,0.,4.8,0.,4.8,0.,4.8
1981-08-27 12:19:59.890 ,4,0,1.,4.8,0.,4.8,1.,4.8,0.,4.8
1981-08-27 12:20:04.690 ,4,0,0.,4.8,0.,4.8,0.,4.8,0.,4.8
1981-08-27 12:20:09.490 ,4,0,0.,4.8,0.,4.8,0.,4.8,0.,4.8
1981-08-27 12:20:14.290 ,4,0,0.,4.8,0.,4.8,0.,4.8,0.,4.8
1981-08-27 12:20:19.090 ,4,0,1.,4.8,0.,4.8,0.,4.8,0.,4.8
1981-08-27 12:20:23.890 ,4,0,0.,4.8,0.,4.8,0.,4.8,0.,4.8
1981-08-27 12:20:28.690 ,4,0,1.,4.8,0.,4.8,0.,4.8,0.,4.8
1981-08-27 12:20:33.490 ,4,0,0.,4.8,0.,4.8,0.,4.8,0.,4.8
1981-08-27 12:20:38.290 ,4,0,0.,4.8,0.,4.8,0.,4.8,0.,4.8
1981-08-27 12:20:43.090 ,4,0,0.,4.8,0.,4.8,0.,4.8,0.,4.8
1981-08-27 12:20:47.890 ,3,0,0.,4.8,0.,4.8,0.,4.8,0.,4.8
1981-08-27 12:20:52.690 ,3,0,0.,4.8,0.,4.8,0.,4.8,0.,4.8
1981-08-27 12:20:57.490 ,3,0,1.,4.8,0.,4.8,0.,4.8,0.,4.8
1981-08-27 12:21:02.290 ,3,0,0.,4.8,0.,4.8,0.,4.8,0.,4.8
1981-08-27 12:21:07.090 ,3,0,0.,4.8,0.,4.8,0.,4.8,0.,4.8
1981-08-27 12:21:11.890 ,3,0,1.,4.8,0.,4.8,0.,4.8,0.,4.8
1981-08-27 12:21:16.690 ,3,0,2.,4.8,0.,4.8,0.,4.8,0.,4.8
1981-08-27 12:21:21.490 ,3,0,0.,4.8,0.,4.8,0.,4.8,0.,4.8
1981-08-27 12:21:26.290 ,3,0,0.,4.8,0.,4.8,0.,4.8,0.,4.8
1981-08-27 12:21:31.090 ,3,0,0.,4.8,0.,4.8,0.,4.8,0.,4.8
1981-08-27 12:21:35.890 ,2,0,0.,4.8,0.,4.8,1.,4.8,0.,4.8
1981-08-27 12:21:40.690 ,2,0,0.,4.8,0.,4.8,0.,4.8,0.,4.8
1981-08-27 12:21:45.490 ,2,0,0.,4.8,0.,4.8,0.,4.8,0.,4.8
1981-08-27 12:21:50.290 ,2,0,0.,4.8,0.,4.8,0.,4.8,0.,4.8
1981-08-27 12:21:55.090 ,2,0,0.,4.8,0.,4.8,0.,4.8,0.,4.8
1981-08-27 12:21:59.890 ,2,0,0.,4.8,0.,4.8,0.,4.8,0.,4.8
1981-08-27 12:22:04.690 ,2,0,0.,4.8,0.,4.8,0.,4.8,0.,4.8
1981-08-27 12:22:09.490 ,2,0,1.,4.8,0.,4.8,0.,4.8,0.,4.8
1981-08-27 12:22:14.290 ,2,0,1.,4.8,0.,4.8,0.,4.8,0.,4.8
1981-08-27 12:22:19.090 ,2,0,1.,4.8,0.,4.8,1.,4.8,0.,4.8
1981-08-27 12:22:23.890 ,1,0,0.,4.8,0.,4.8,0.,4.8,0.,4.8
1981-08-27 12:22:28.690 ,1,0,0.,4.8,0.,4.8,1.,4.8,0.,4.8
1981-08-27 12:22:33.490 ,1,0,0.,4.8,0.,4.8,0.,4.8,0.,4.8
1981-08-27 12:22:38.290 ,1,0,1.,4.8,0.,4.8,0.,4.8,0.,4.8
1981-08-27 12:22:43.090 ,1,0,0.,4.8,0.,4.8,0.,4.8,0.,4.8
1981-08-27 12:22:47.890 ,1,0,0.,4.8,0.,4.8,0.,4.8,0.,4.8
1981-08-27 12:22:52.690 ,1,0,0.,4.8,0.,4.8,0.,4.8,0.,4.8
1981-08-27 12:22:57.490 ,1,0,0.,4.8,0.,4.8,0.,4.8,0.,4.8
1981-08-27 12:23:02.290 ,1,0,0.,4.8,0.,4.8,0.,4.8,0.,4.8
1981-08-27 12:23:07.090 ,1,0,2.,4.8,0.,4.8,0.,4.8,0.,4.8
1981-08-27 12:23:11.890 ,0,0,0.,4.8,0.,4.8,0.,4.8,0.,4.8
1981-08-27 12:23:16.690 ,0,0,0.,4.8,0.,4.8,0.,4.8,0.,4.8
1981-08-27 12:23:21.490 ,0,0,1.,4.8,0.,4.8,0.,4.8,0.,4.8
1981-08-27 12:23:26.290 ,0,0,1.,4.8,0.,4.8,0.,4.8,0.,4.8
1981-08-27 12:23:31.090 ,0,0,0.,4.8,0.,4.8,0.,4.8,0.,4.8
1981-08-27 12:23:35.890 ,0,0,0.,4.8,0.,4.8,0.,4.8,0.,4.8
1981-08-27 12:23:40.690 ,0,0,0.,4.8,0.,4.8,1.,4.8,0.,4.8
1981-08-27 12:23:45.490 ,0,0,0.,4.8,0.,4.8,0.,4.8,0.,4.8
1981-08-27 12:23:50.290 ,0,0,2.,4.8,0.,4.8,1.,4.8,0.,4.8
1981-08-27 12:23:55.090 ,0,0,2.,4.8,0.,4.8,0.,4.8,0.,4.8
1981-08-27 12:23:59.890 ,0,0,0.,4.8,0.,4.8,0.,4.8,0.,4.8
1981-08-27 12:24:04.690 ,0,0,1.,4.8,0.,4.8,0.,4.8,0.,4.8
1981-08-27 12:24:09.490 ,0,0,0.,4.8,0.,4.8,0.,4.8,0.,4.8
1981-08-27 12:24:14.290 ,0,0,0.,4.8,0.,4.8,0.,4.8,0.,4.8
1981-08-27 12:24:19.090 ,0,0,0.,4.8,0.,4.8,0.,4.8,0.,4.8
1981-08-27 12:24:23.890 ,0,0,1.,4.8,0.,4.8,0.,4.8,0.,4.8
1981-08-27 12:24:28.690 ,0,0,0.,4.8,0.,4.8,0.,4.8,0.,4.8
1981-08-27 12:24:33.490 ,0,0,1.,4.8,0.,4.8,0.,4.8,0.,4.8
1981-08-27 12:24:38.290 ,0,0,1.,4.8,0.,4.8,0.,4.8,0.,4.8
1981-08-27 12:24:43.090 ,0,0,0.,4.8,0.,4.8,0.,4.8,0.,4.8
1981-08-27 12:24:47.890 ,1,0,0.,4.8,0.,4.8,0.,4.8,0.,4.8
1981-08-27 12:24:52.690 ,1,0,1.,4.8,0.,4.8,0.,4.8,0.,4.8
1981-08-27 12:24:57.490 ,1,0,0.,4.8,0.,4.8,0.,4.8,0.,4.8
1981-08-27 12:25:02.290 ,1,0,1.,4.8,0.,4.8,0.,4.8,0.,4.8
1981-08-27 12:25:07.090 ,1,0,1.,4.8,0.,4.8,0.,4.8,0.,4.8
1981-08-27 12:25:11.890 ,1,0,0.,4.8,0.,4.8,0.,4.8,0.,4.8
1981-08-27 12:25:16.690 ,1,0,1.,4.8,0.,4.8,0.,4.8,0.,4.8
1981-08-27 12:25:21.490 ,1,0,1.,4.8,0.,4.8,0.,4.8,0.,4.8
1981-08-27 12:25:26.290 ,1,0,1.,4.8,0.,4.8,0.,4.8,0.,4.8
1981-08-27 12:25:31.090 ,1,0,0.,4.8,0.,4.8,0.,4.8,0.,4.8
1981-08-27 12:25:35.890 ,2,0,0.,4.8,0.,4.8,0.,4.8,0.,4.8
1981-08-27 12:25:40.690 ,2,0,0.,4.8,0.,4.8,0.,4.8,0.,4.8
1981-08-27 12:25:45.490 ,2,0,0.,4.8,0.,4.8,0.,4.8,0.,4.8
1981-08-27 12:25:50.290 ,2,0,0.,4.8,0.,4.8,0.,4.8,0.,4.8
1981-08-27 12:25:55.090 ,2,0,1.,4.8,0.,4.8,0.,4.8,0.,4.8
1981-08-27 12:25:59.890 ,2,0,1.,4.8,1.,4.8,0.,4.8,0.,4.8
1981-08-27 12:26:04.690 ,2,0,1.,4.8,0.,4.8,1.,4.8,0.,4.8
1981-08-27 12:26:09.490 ,2,0,0.,4.8,0.,4.8,0.,4.8,0.,4.8
1981-08-27 12:26:14.290 ,2,0,0.,4.8,0.,4.8,1.,4.8,0.,4.8
1981-08-27 12:26:19.090 ,2,0,0.,4.8,0.,4.8,1.,4.8,0.,4.8
1981-08-27 12:26:23.890 ,3,0,0.,4.8,0.,4.8,0.,4.8,0.,4.8
1981-08-27 12:26:28.690 ,3,0,0.,4.8,0.,4.8,0.,4.8,0.,4.8
1981-08-27 12:26:33.490 ,3,0,1.,4.8,0.,4.8,1.,4.8,0.,4.8
1981-08-27 12:26:38.290 ,3,0,0.,4.8,0.,4.8,0.,4.8,0.,4.8
1981-08-27 12:26:43.090 ,3,0,1.,4.8,0.,4.8,0.,4.8,0.,4.8
1981-08-27 12:26:47.890 ,3,0,1.,4.8,0.,4.8,0.,4.8,0.,4.8
1981-08-27 12:26:52.690 ,3,0,1.,4.8,0.,4.8,0.,4.8,0.,4.8
1981-08-27 12:26:57.490 ,3,0,0.,4.8,0.,4.8,0.,4.8,0.,4.8
1981-08-27 12:27:02.290 ,3,0,0.,4.8,0.,4.8,0.,4.8,0.,4.8
1981-08-27 12:27:07.090 ,3,0,0.,4.8,0.,4.8,0.,4.8,0.,4.8
1981-08-27 12:27:11.890 ,4,0,1.,4.8,0.,4.8,0.,4.8,0.,4.8
1981-08-27 12:27:16.690 ,4,0,0.,4.8,0.,4.8,0.,4.8,0.,4.8
1981-08-27 12:27:21.490 ,4,0,0.,4.8,0.,4.8,1.,4.8,0.,4.8
1981-08-27 12:27:26.290 ,4,0,1.,4.8,0.,4.8,0.,4.8,0.,4.8
1981-08-27 12:27:31.090 ,4,0,0.,4.8,0.,4.8,0.,4.8,0.,4.8
1981-08-27 12:27:35.890 ,4,0,1.,4.8,0.,4.8,0.,4.8,0.,4.8
1981-08-27 12:27:40.690 ,4,0,0.,4.8,0.,4.8,0.,4.8,0.,4.8
1981-08-27 12:27:45.490 ,4,0,0.,4.8,0.,4.8,0.,4.8,0.,4.8
1981-08-27 12:27:50.290 ,4,0,0.,4.8,0.,4.8,0.,4.8,0.,4.8
1981-08-27 12:27:55.090 ,4,0,0.,4.8,0.,4.8,0.,4.8,0.,4.8
1981-08-27 12:27:59.890 ,5,0,0.,4.8,0.,4.8,0.,4.8,0.,4.8
1981-08-27 12:28:04.690 ,5,0,0.,4.8,0.,4.8,0.,4.8,0.,4.8
1981-08-27 12:28:09.490 ,5,0,0.,4.8,0.,4.8,0.,4.8,0.,4.8
1981-08-27 12:28:14.290 ,5,0,0.,4.8,0.,4.8,1.,4.8,0.,4.8
1981-08-27 12:28:19.090 ,5,0,0.,4.8,0.,4.8,0.,4.8,0.,4.8
1981-08-27 12:28:23.890 ,5,0,1.,4.8,0.,4.8,0.,4.8,0.,4.8
1981-08-27 12:28:28.690 ,5,0,2.,4.8,0.,4.8,0.,4.8,0.,4.8
1981-08-27 12:28:33.490 ,5,0,0.,4.8,0.,4.8,0.,4.8,0.,4.8
1981-08-27 12:28:38.290 ,5,0,0.,4.8,0.,4.8,0.,4.8,0.,4.8
1981-08-27 12:28:43.090 ,5,0,0.,4.8,0.,4.8,0.,4.8,0.,4.8
1981-08-27 12:28:47.890 ,6,0,0.,4.8,0.,4.8,0.,4.8,0.,4.8
1981-08-27 12:28:52.690 ,6,0,1.,4.8,0.,4.8,0.,4.8,0.,4.8
1981-08-27 12:28:57.490 ,6,0,0.,4.8,0.,4.8,1.,4.8,0.,4.8
1981-08-27 12:29:02.290 ,6,0,1.,4.8,0.,4.8,0.,4.8,0.,4.8
1981-08-27 12:29:07.090 ,6,0,0.,4.8,0.,4.8,0.,4.8,0.,4.8
1981-08-27 12:29:11.890 ,6,0,0.,4.8,1.,4.8,0.,4.8,0.,4.8
1981-08-27 12:29:16.690 ,6,0,0.,4.8,0.,4.8,0.,4.8,0.,4.8
1981-08-27 12:29:21.490 ,6,0,0.,4.8,0.,4.8,0.,4.8,0.,4.8
1981-08-27 12:29:26.290 ,6,0,0.,4.8,0.,4.8,0.,4.8,0.,4.8
1981-08-27 12:29:31.090 ,6,0,0.,4.8,0.,4.8,0.,4.8,0.,4.8
1981-08-27 12:29:35.890 ,7,0,0.,4.8,0.,4.8,0.,4.8,0.,4.8
1981-08-27 12:29:40.690 ,7,0,0.,4.8,0.,4.8,0.,4.8,0.,4.8
1981-08-27 12:29:45.490 ,7,0,0.,4.8,0.,4.8,0.,4.8,0.,4.8
1981-08-27 12:29:50.290 ,7,0,1.,4.8,0.,4.8,0.,4.8,0.,4.8
1981-08-27 12:29:55.090 ,7,0,2.,4.8,0.,4.8,1.,4.8,0.,4.8
1981-08-27 12:29:59.890 ,7,0,1.,4.8,0.,4.8,0.,4.8,0.,4.8
1981-08-27 12:30:04.690 ,7,0,0.,4.8,0.,4.8,0.,4.8,0.,4.8
1981-08-27 12:30:09.490 ,7,0,0.,4.8,0.,4.8,0.,4.8,0.,4.8
1981-08-27 12:30:14.290 ,7,0,0.,4.8,0.,4.8,0.,4.8,0.,4.8
1981-08-27 12:30:19.090 ,7,0,3.,4.8,0.,4.8,0.,4.8,0.,4.8
1981-08-27 12:30:23.890 ,7,0,0.,4.8,0.,4.8,0.,4.8,0.,4.8
1981-08-27 12:30:28.690 ,7,0,0.,4.8,0.,4.8,0.,4.8,0.,4.8
1981-08-27 12:30:33.490 ,7,0,0.,4.8,0.,4.8,0.,4.8,0.,4.8
1981-08-27 12:30:38.290 ,7,0,0.,4.8,0.,4.8,0.,4.8,0.,4.8
1981-08-27 12:30:43.090 ,7,0,1.,4.8,0.,4.8,0.,4.8,0.,4.8
1981-08-27 12:30:47.890 ,6,0,0.,4.8,1.,4.8,0.,4.8,0.,4.8
1981-08-27 12:30:52.690 ,6,0,0.,4.8,0.,4.8,0.,4.8,0.,4.8
1981-08-27 12:30:57.490 ,6,0,0.,4.8,0.,4.8,0.,4.8,0.,4.8
1981-08-27 12:31:02.290 ,6,0,2.,4.8,0.,4.8,0.,4.8,0.,4.8
1981-08-27 12:31:07.090 ,6,0,0.,4.8,0.,4.8,0.,4.8,0.,4.8
1981-08-27 12:31:11.890 ,5,0,0.,4.8,0.,4.8,0.,4.8,0.,4.8
1981-08-27 12:31:16.690 ,5,0,0.,4.8,0.,4.8,0.,4.8,0.,4.8
1981-08-27 12:31:21.490 ,5,0,0.,4.8,0.,4.8,0.,4.8,0.,4.8
1981-08-27 12:31:26.290 ,5,0,0.,4.8,0.,4.8,0.,4.8,0.,4.8
1981-08-27 12:31:31.090 ,5,0,0.,4.8,0.,4.8,0.,4.8,0.,4.8
1981-08-27 12:31:35.890 ,4,0,0.,4.8,0.,4.8,0.,4.8,0.,4.8
1981-08-27 12:31:40.690 ,4,0,1.,4.8,0.,4.8,0.,4.8,0.,4.8
1981-08-27 12:31:45.490 ,4,0,0.,4.8,0.,4.8,1.,4.8,0.,4.8
1981-08-27 12:31:50.290 ,4,0,0.,4.8,0.,4.8,1.,4.8,0.,4.8
1981-08-27 12:31:55.090 ,4,0,0.,4.8,0.,4.8,0.,4.8,0.,4.8
1981-08-27 12:31:59.890 ,3,0,1.,4.8,0.,4.8,0.,4.8,0.,4.8
1981-08-27 12:32:04.690 ,3,0,0.,4.8,0.,4.8,0.,4.8,0.,4.8
1981-08-27 12:32:09.490 ,3,0,0.,4.8,0.,4.8,0.,4.8,0.,4.8
1981-08-27 12:32:14.290 ,3,0,0.,4.8,0.,4.8,0.,4.8,0.,4.8
1981-08-27 12:32:19.090 ,3,0,0.,4.8,0.,4.8,0.,4.8,0.,4.8
1981-08-27 12:32:23.890 ,2,0,0.,4.8,0.,4.8,0.,4.8,0.,4.8
1981-08-27 12:32:28.690 ,2,0,1.,4.8,0.,4.8,0.,4.8,0.,4.8
1981-08-27 12:32:33.490 ,2,0,0.,4.8,0.,4.8,0.,4.8,0.,4.8
1981-08-27 12:32:38.290 ,2,0,0.,4.8,0.,4.8,1.,4.8,0.,4.8
1981-08-27 12:32:43.090 ,2,0,0.,4.8,0.,4.8,0.,4.8,0.,4.8
1981-08-27 12:32:47.890 ,1,0,1.,4.8,0.,4.8,0.,4.8,0.,4.8
1981-08-27 12:32:52.690 ,1,0,1.,4.8,0.,4.8,0.,4.8,0.,4.8
1981-08-27 12:32:57.490 ,1,0,0.,4.8,0.,4.8,0.,4.8,0.,4.8
1981-08-27 12:33:02.290 ,1,0,0.,4.8,0.,4.8,0.,4.8,0.,4.8
1981-08-27 12:33:07.090 ,1,0,0.,4.8,0.,4.8,0.,4.8,0.,4.8
1981-08-27 12:33:11.890 ,0,0,1.,4.8,0.,4.8,0.,4.8,0.,4.8
1981-08-27 12:33:16.690 ,0,0,1.,4.8,0.,4.8,0.,4.8,0.,4.8
1981-08-27 12:33:21.490 ,0,0,0.,4.8,0.,4.8,0.,4.8,0.,4.8
1981-08-27 12:33:26.290 ,0,0,0.,4.8,0.,4.8,0.,4.8,0.,4.8
1981-08-27 12:33:31.090 ,0,0,0.,4.8,0.,4.8,0.,4.8,0.,4.8
1981-08-27 12:33:35.890 ,0,0,1.,4.8,0.,4.8,0.,4.8,0.,4.8
1981-08-27 12:33:40.690 ,0,0,0.,4.8,0.,4.8,0.,4.8,0.,4.8
1981-08-27 12:33:45.490 ,0,0,1.,4.8,0.,4.8,0.,4.8,0.,4.8
1981-08-27 12:33:50.290 ,0,0,0.,4.8,0.,4.8,0.,4.8,0.,4.8
1981-08-27 12:33:55.090 ,0,0,0.,4.8,0.,4.8,0.,4.8,0.,4.8
1981-08-27 12:33:59.890 ,1,0,1.,4.8,0.,4.8,0.,4.8,0.,4.8
1981-08-27 12:34:04.690 ,1,0,2.,4.8,0.,4.8,0.,4.8,0.,4.8